Kaneohe MCBH, HI

7:07 PM HST on June 26, 2017 (GMT -1000)
Kaneohe Bay Marine Corps Air Facility

Weather History for PHNG - February, 2013

Change the Weather History Date:

Wednesday, February 20, 2013

  Actual Average Record
Temperature  
Mean Temperature 74 °F -  
Max Temperature 78 °F 75 °F 82 °F (2014)
Min Temperature 69 °F 67 °F 64 °F (2008)
Cooling Degree Days 8    
Growing Degree Days 24 (Base 50)    
Moisture  
Dew Point 63 °F    
Average Humidity 69    
Maximum Humidity 83    
Minimum Humidity 57    
Precipitation  
Precipitation 0.01 in - - ()
Sea Level Pressure  
Sea Level Pressure 30.13 in    
Wind  
Wind Speed 13 mph (ENE)    
Max Wind Speed 18 mph    
Max Gust Speed 25 mph    
Visibility 9 miles    
Events      
Averages and records for this station are not official NWS values.
T = Trace of Precipitation, MM = Missing Value Source: NWS Daily Summary

Daily Weather History Graph

Daily Weather History Graph

Search for Another Location

Airport or City:

Trip Planner

Search our weather history database for the weather conditions in past years. The results will help you decide how hot, cold, wet, or windy it might be!

Date:

Astronomy

Feb. 20, 2013 Rise Set
Actual Time 6:58 AM HST 6:31 PM HST
Civil Twilight 6:35 AM HST 6:54 PM HST
Nautical Twilight 6:09 AM HST 7:20 PM HST
Astronomical Twilight 5:43 AM HST 7:46 PM HST
Moon 2:23 PM HST (2/20) 3:05 AM HST (2/20)
Length of Visible Light 12h 18m
Length of Day
11h 33m
Waxing Gibbous, 77% of the Moon is Illuminated
Feb 20
Waxing Gibbous
Feb 25
Full
Mar 4
Last Quarter
Mar 11
New
Mar 19
First Quarter

Hourly Weather History & Observations

Time (HST) Temp. Dew Point Humidity Pressure Visibility Wind Dir Wind Speed Gust Speed Precip Events Conditions
12:30 AM - - N/A% - - North - - N/A   Unknown
12:57 AM 72.5 °F 64.0 °F 75% 30.11 in 10.0 mi East 12.7 mph 20.7 mph 0.00 in   Mostly Cloudy
1:57 AM 70.3 °F 64.0 °F 80% 30.10 in 10.0 mi East 15.0 mph 25.3 mph 0.00 in   Mostly Cloudy
2:39 AM 69.8 °F 62.6 °F 78% 30.10 in 6.2 mi ENE 9.2 mph 21.9 mph N/A   Mostly Cloudy
2:45 AM - - N/A% - - North - - N/A   Unknown
2:57 AM 70.3 °F 63.0 °F 77% 30.09 in 10.0 mi ENE 13.8 mph 21.9 mph N/A   Mostly Cloudy
3:11 AM 69.8 °F 64.4 °F 83% 30.10 in 6.2 mi East 11.5 mph 19.6 mph N/A   Mostly Cloudy
3:57 AM 71.4 °F 64.0 °F 77% 30.07 in 10.0 mi ENE 13.8 mph 23.0 mph N/A   Mostly Cloudy
4:04 AM 71.6 °F 62.6 °F 73% 30.09 in 6.2 mi ENE 12.7 mph 21.9 mph N/A   Scattered Clouds
4:57 AM 71.4 °F 62.1 °F 72% 30.09 in 10.0 mi East 13.8 mph 25.3 mph 0.01 in   Mostly Cloudy
5:16 AM 71.6 °F 62.6 °F 73% 30.10 in 6.2 mi East 18.4 mph 24.2 mph N/A   Mostly Cloudy
5:25 AM 71.6 °F 62.6 °F 73% 30.11 in 6.2 mi ENE 13.8 mph 24.2 mph N/A   Mostly Cloudy
5:57 AM 70.9 °F 63.0 °F 76% 30.10 in 10.0 mi ENE 10.4 mph 20.7 mph N/A   Scattered Clouds
6:57 AM 71.6 °F 62.1 °F 72% 30.13 in 10.0 mi East 10.4 mph 21.9 mph N/A   Mostly Cloudy
7:57 AM 72.1 °F 64.0 °F 76% 30.14 in 10.0 mi East 12.7 mph 25.3 mph N/A   Mostly Cloudy
8:37 AM 73.4 °F 62.6 °F 69% 30.17 in 10.0 mi ENE 12.7 mph 21.9 mph N/A   Overcast
8:57 AM 73.9 °F 63.0 °F 68% 30.17 in 10.0 mi ENE 10.4 mph 23.0 mph N/A   Mostly Cloudy
9:05 AM 73.4 °F 64.4 °F 73% 30.18 in 6.2 mi ENE 11.5 mph 20.7 mph N/A   Mostly Cloudy
9:24 AM 73.4 °F 64.4 °F 73% 30.18 in 6.2 mi NE 11.5 mph 18.4 mph N/A   Mostly Cloudy
9:57 AM 75.2 °F 64.9 °F 70% 30.17 in 10.0 mi ENE 11.5 mph 24.2 mph N/A   Overcast
10:57 AM 75.2 °F 64.0 °F 68% 30.17 in 10.0 mi East 11.5 mph 21.9 mph N/A   Mostly Cloudy
11:15 AM 75.2 °F 64.4 °F 69% 30.18 in 6.2 mi ENE 12.7 mph 25.3 mph N/A   Mostly Cloudy
11:57 AM 75.2 °F 64.9 °F 70% 30.16 in 10.0 mi ENE 13.8 mph 23.0 mph N/A   Mostly Cloudy
12:30 PM - - N/A% - - North - - N/A   Unknown
12:57 PM 78.8 °F 64.0 °F 60% 30.14 in 10.0 mi ENE 12.7 mph 24.2 mph N/A   Mostly Cloudy
1:30 PM - - N/A% - - North - - N/A   Unknown
1:57 PM 77.0 °F 62.1 °F 60% 30.12 in 10.0 mi ENE 16.1 mph 23.0 mph N/A   Overcast
2:10 PM 77.0 °F 64.4 °F 65% 30.14 in 6.2 mi ENE 12.7 mph 23.0 mph N/A   Overcast
2:24 PM 77.0 °F 64.4 °F 65% 30.13 in 6.2 mi ENE 11.5 mph 23.0 mph N/A   Overcast
2:57 PM 78.8 °F 64.0 °F 60% 30.11 in 10.0 mi ENE 13.8 mph 24.2 mph N/A   Mostly Cloudy
3:52 PM 78.8 °F 62.6 °F 57% 30.13 in 6.2 mi ENE 12.7 mph 21.9 mph N/A   Mostly Cloudy
3:57 PM 78.8 °F 63.0 °F 58% 30.11 in 10.0 mi ENE 12.7 mph 21.9 mph N/A   Mostly Cloudy
4:21 PM 78.8 °F 62.6 °F 57% 30.12 in 6.2 mi ENE 10.4 mph 23.0 mph N/A   Scattered Clouds
4:30 PM - - N/A% - - North - - N/A   Unknown
4:57 PM 78.8 °F 63.0 °F 58% 30.11 in 10.0 mi ENE 9.2 mph 20.7 mph N/A   Scattered Clouds
5:45 PM - - N/A% - - North - - N/A   Unknown
5:57 PM 75.2 °F 61.0 °F 61% 30.12 in 10.0 mi ENE 11.5 mph 21.9 mph N/A   Scattered Clouds
6:57 PM 73.4 °F 61.0 °F 65% 30.13 in 10.0 mi ENE 12.7 mph 21.9 mph 0.00 in   Scattered Clouds
7:57 PM 73.4 °F 62.1 °F 68% 30.16 in 10.0 mi ENE 11.5 mph 19.6 mph N/A   Scattered Clouds
8:57 PM 71.6 °F 61.0 °F 69% 30.17 in 10.0 mi ENE 10.4 mph 19.6 mph N/A   Scattered Clouds
9:57 PM 71.6 °F 62.1 °F 72% 30.17 in 10.0 mi ENE 10.4 mph 18.4 mph N/A   Scattered Clouds
10:57 PM 71.6 °F 61.0 °F 69% 30.16 in 10.0 mi ENE 11.5 mph 20.7 mph N/A   Mostly Cloudy
11:57 PM 71.6 °F 61.0 °F 69% 30.16 in 10.0 mi ENE 10.4 mph 19.6 mph N/A   Mostly Cloudy